Погода в Кличеве

Погода в Кличеве : погода сейчас, прогноз погоды и архив. Всё, что Вы хотите узнать о погоде в Кличеве!

Хотите узнать прогноз погоды в Кличеве? Тогда Вам сюда: Погода в Кличеве

Поиск расширенной информации на нашем сайте:

Другие новости

Новости СМИ2

Главная страница сайта

Новости сайта

03.07.2017

Напоминаем, что на нашем специализированном сайте Метеоцентр.Азия вы можете получить высокодетализированные автоматические прогнозы погоды по пунктам России, СНГ и мира в авиационном формате (включающие направление и скорость ветра, видимость, явления погоды, количество и форму облачности, нижнюю и верхнюю границу облачности).


Погода в Кличеве - сегодня

Время (UTC), дата Ветер
(°,м/с) 
Видим.   Явления Облачность Т
(°С)
Тd
(°С)
f(%) Тe
(°С)
Pmin
(гПа)
dP
(гПа)
Po
(мм)
O2
(г/м3)
Тmin Tmax R s Состояние
почвы
09 12.07.18 110 (В) 20000 м    4/4 600 м 
[Cu med, cong]
+25.3 +14.4 51 +33  1014.6  -0.5  748  273           
12 12.07.18 090 (В) 20000 м    4/4 600 м 
[Cu med, cong]
+26.8 +14.9 48 +35  1013.4  -1.1  747  271           
15 12.07.18 110 (В) 20000 м    3/3 600 м 
[Cu med, cong]
+27 +12.6 41 +32  1012.4  -1  746  271           
18 12.07.18 тихо ()   20000 м    3/3 600 м 
[Sc]
+23.7 +16.2 63 +35  1012.3  -0.3  746  273    +28.7       
21 12.07.18 тихо ()   10 км    4/4 600 м 
[Sc]
+16.8 +15.1 90 +26  1012.8  746  280           
00 13.07.18 тихо ()   4000 м  дымка  8/4 600 м верхняя 
[Sc|Cs]
+16.3 +15.2 93 +25  1011.7  -1.1  745  280           
06 13.07.18 тихо ()   4000 м  слаб. ливневой дождь  10/10 400 м кучево-дожд. 
[Cb cap]
+18.4 +17.2 93 +31  1011.4  745  277  +14.6       
12 13.07.18 110 (В) 20000 м  {ливн. осадки}  8/8 700 м кучево-дожд. 
[Cb calv]
+22.5 +17.6 74 +36  1009.3  -1.5  744  273           
18 13.07.18 080 (В) 1{13}  10 км  в посл. час ливневой дождь{гроза}  6/6 700 м кучево-дожд. 
[Cb calv]
+17.2 +16.1 93 +30  1009.1  0.3  743  278    +25.3     
21 13.07.18 тихо ()   4000 м  дымка  3/3 600 м 
[Sc]
+15.3 +14.8 97 +24  1009.3  0.1  743  280           
00 14.07.18 тихо ()   4000 м  дымка  3/3 600 м 
[Sc]
+12.6 +12.1 97 +17  1009.1  -0.4  743  284           
06 14.07.18 210 (ЮЗ) 1000 м  в посл. час туман  9/9 800 м 
[Sc]
+16.8 +16.6 99 +30  1008.2  -0.3  743  278  +12.4         
09 14.07.18 210 (ЮЗ) 20000 м    8/8 800 м 
[Cu Sc]
+19.9 +17.1 84 +34  1008.3  0.3  743  275           
12 14.07.18 260 (З) 20000 м    6/6 800 м 
[Cu Sc]
+22.9 +15 61 +32  1007  -1.1  742  273           
15 14.07.18 330 (СЗ) 20000 м    6/6 700 м кучево-дожд. 
[Cb calv]
+24.2 +14.3 54 +32  1006  -0.9  741  271           
18 14.07.18 300 (СЗ) 10 км  гроза без осадков{ливн. осадки}  8/8 700 м кучево-дожд. 
[Cb calv]
+16.7 +14.7 88 +26  1007.2  0.7  742  279    +24.9  0.8     
00 15.07.18 тихо ()   4000 м  дымка{гроза, ливн. осадки}  3/3 600 м кучево-дожд. 
[Cb calv]
+14.1 +13.5 96 +21  1007.1  -0.5  742  281           
06 15.07.18 340 (С) 4000 м  дымка  9/9 900 м 
[Sc]
+16.9 +16.6 98 +30  1007.7  0.6  742  278  +12.2    0.5     
09 15.07.18 350 (С) 10 км    9/9 900 м 
[Sc]
+20.3 +17.9 86 +35  1007.8  0.3  742  274           
12 15.07.18 350 (С) 20000 м    8/8 700 м кучево-дожд. 
[Cb calv]
+23 +16.8 68 +35  1006.3  -1.2  742  272           
18 15.07.18 320 (СЗ) 10 км  гроза без осадков{ливн. осадки}  8/8 700 м кучево-дожд. 
[Cb calv]
+19.5 +17.8 90 +35  1006.9  0.5  742  275    +24.6     
00 16.07.18 060 (СВ) 4000 м  дымка{гроза, ливн. осадки}  6/6 800 м 
[Sc]
+16.4 +15.9 97 +29  1007.7  0.2  742  279           
03 16.07.18 020 (С) 4000 м  дымка{ливн. осадки}  8/8 700 м кучево-дожд. 
[Cb calv]
+16.7 +16.4 98 +30  1007.7  742  278         
06 16.07.18 040 (СВ) 4000 м  слаб. ливневой дождь  10/10 400 м кучево-дожд. 
[Cb cap]
+17.9 +17.6 98 +32  1007.5  -0.1  742  277  +16.1       
12 16.07.18 010 (С) 4000 м  слаб. ливневой дождь  10/10 400 м кучево-дожд. 
[Cb cap]
+19.9 +18.7 93 +37  1006.8  -0.7  742  274      0.9     
Время (UTC), дата Ветер
(°,м/с) 
Видим.   Явления Облачность Т
(°С)
Тd
(°С)
f(%) Тe
(°С)
Pmin
(гПа)
dP
(гПа)
Po
(мм)
O2
(г/м3)
Тmin Tmax R s Состояние
почвы

Для получения пояснительной информации подведите курсор к названию столбца.

ПОГОДА в Кличеве - архив

Всё, что Вы хотите узнать о погоде в Кличеве - удобно и подробно!

Выберите нужную дату (начиная с 1 января 2015* года) и нажмите кнопку "Найти".
Будут отображены архивные сводки погоды по пункту Кличев, начиная с указанной даты.


Отображать данные в формате CSV (для использования в таблицах Excel)


Внимание! Наш архив погоды предназначен исключительно для личного некоммерческого использования в познавательных целях. Если Вам необходимы официальные справки о состоянии погоды (для производственных, юридических, коммерческих и т.п. целей), обращайтесь в органы Росгидромета.

*Примечание: данная дата относится к архиву по метеостанциям СССР (Россия, СНГ, Балтия).
Архив по метеостанциям Зарубежной Европы и Азии (кроме Китая) хранится 10 дней, по другим регионам земного шара (Китай, Африка, Америка, Австралия, Океания) - 1 день.

Кличев - район местоположения метеостанции


Название, широта, долгота, высота метеостанции:
Кличев 53.5°ш. 29.3°д. 155 м над ур. моря [Беларусь]

Дополнительная информация

В oтличие oт бoльшинства пoгoдных сайтoв мы публикуем пoдрoбную метеoинфoрмацию в детальнoм прoфессиoнальнoм фoрмате.

Характеристики температуры и влажнoсти вoздуха измеряются на высoте 2 м в тени вдали oт зданий и деревьев.
Скoрoсть ветра измеряется на высoте 10 м (на урoвне рoста челoвека скoрoсть ветра ниже в 1.5-2 раза). Если метеoстанция нахoдится в гoрoде или в лесу, тo скoрoсть ветра занижена на 2-4 м/с пo сравнению с oткрытым местoм. Скoрoсть ветра над акватoриями крупных рек и oзёр, а также на вершинах хoлмoв на 2-5 м/с выше, чем в oбычных услoвиях.
Атмoсфернoе давление в разных тoчках местнoсти мoжет значительнo oтличаться oт давления на метеoстанции, в зависимoсти oт услoвий рельефа (при пoдъёме на 10 м давление пoнижается примернo на 1 мм рт.ст.).